User: anonymous   Login
Location: *
(41.7492°S, 135.4150°W)
Time: 21:03:57
(UTC+00:00)
Language:

AO-73 - Orbit

View from above orbital plane
View from above orbital plane
View from above satellite
View from above satellite

Ground track
Ground track

The orbit data is extracted from the following two-line orbital elements,

1 39444U 13066AE  22178.43443717  .00001766  00000-0  21530-3 0  9997
2 39444  97.6240 151.8869 0056699   1.9258 358.2164 14.83469707463003
Epoch (UTC): 27 June 2022 10:25:35
Eccentricity: 0.0056699
inclination: 97.6240°
perigee height: 579 km
apogee height: 658 km
right ascension of ascending node: 151.8869°
argument of perigee: 1.9258°
revolutions per day: 14.83469707
mean anomaly at epoch: 358.2164°
orbit number at epoch: 46300

The dashed part of the orbit path shows where the satellite is in the earth's shadow,  

DLR